Regional Weather Roundup
Issued by NWS

Home | Current Version | Previous Version | Graphics & Text | Print | Product List | Glossary On
Versions: 1 2 3 4 5 6 7 8 9 10 11 12 13 14 15 16 17 18 19 20 21 22 23 24 25 26 27 28 29 30 31 32 33 34 35 36 37 38 39 40 41 42 43 44 45 46 47 48 49 50
000
ASUS43 KBIS 241602
RWRND

NORTH DAKOTA REGIONAL WEATHER ROUNDUP
NATIONAL WEATHER SERVICE BISMARCK ND
1100 AM CDT SUN JUL 24 2016

NOTE: "FAIR" INDICATES FEW OR NO CLOUDS BELOW 12,000 FEET WITH NO
SIGNIFICANT WEATHER AND/OR OBSTRUCTIONS TO VISIBILITY.


NDZ001>003-009>011-017-241700-
NORTHWEST NORTH DAKOTA

CITY           SKY/WX    TMP DP  RH WIND       PRES   REMARKS
WILLISTON      SUNNY     76  53  44 NW13      30.06R
MINOT          SUNNY     77  55  46 W15       29.99R
MINOT AFB      SUNNY     72  57  57 NW15G21   29.97R
$$

NDZ018>021-031>035-040>046-241700-
SOUTHWEST NORTH DAKOTA

CITY           SKY/WX    TMP DP  RH WIND       PRES   REMARKS
BISMARCK       SUNNY     76  58  53 W8        30.05R
DICKINSON      SUNNY     74  52  46 NW12      30.08S
GARRISON         N/A     73  58  59 NW10      30.03R
HETTINGER ARPT MOSUNNY   76  50  40 VRB5      30.12S
$$

NDZ004>008-012>016-024-026-027-054-241700-
NORTHEAST NORTH DAKOTA

CITY           SKY/WX    TMP DP  RH WIND       PRES   REMARKS
GRAND FORKS    MOSUNNY   75  64  68 W13       29.85R
GRND FRKS AFB  SUNNY     75  63  66 W12G21    29.87R
DEVILS LAKE    SUNNY     71  61  70 W17G24    29.94R
$$

NDZ022-023-025-028>030-036>039-047>053-241700-
SOUTHEAST NORTH DAKOTA

CITY           SKY/WX    TMP DP  RH WIND       PRES   REMARKS
FARGO          MOSUNNY   76  63  64 W14       29.91R
JAMESTOWN      SUNNY     74  59  59 NW15      29.97S
$$




USA.gov is the U.S. government's official web portal to all federal, state and local government web resources and services.